Location: Lafig�re
(44.4503°N, 4.0357°E)
Time: 06:57:23
(UTC+00:00)

Cosmos 1092 Rocket - Pass Details

Date: 01 February 2021
Orbit: 954 x 994 km, 83.0° (Epoch: 08 March)

Event Time Altitude Azimuth Distance (km) Brightness Sun altitude
Rises 18:22:32 0° 216° (SW) 3,635 7.7 -16.1°
Reaches altitude 10° 18:25:19 10° 226° (SW) 2,689 7.1 -16.6°
Maximum altitude 18:30:44 32° 288° (WNW) 1,588 5.7 -17.6°
Drops below altitude 10° 18:36:10 10° 350° (N) 2,694 6.4 -18.5°
Sets 18:38:59 0° 1° (N) 3,644 6.9 -19.0°
